7 * 24
多渠道服务支持
ORBCOMM FM 14是美国轨道通信公司Orbcomm系统的卫星,于1998年8月2日发射。该卫星隶属于全球首个近地轨道小型卫星移动通信系统,主要提供全球短信息传输、数据通信与定位服务,支持远程工业监测、资产跟踪及应急通信等应用。作为低轨小卫星,ORBCOMM FM 14设计精简,依靠甚高频与特高频转发器实现天地互联,凭借低成本优势拓展全球无缝覆盖的物联通信能力。
(ORB)
| 数据来源 | 国际轨道数据 |
| 星历时间: | 2026-06-11T22:18:27+0800 1天前 查看轨道信息 |
| 半长轴: | 7136.216km |
| 偏心率: | 0.0003667 |
| 轨道倾角: | 44.996° |
| 近地点辐角 | 267.930° |
| 升交点赤经 | 267.751° |
| 平近点角 | 92.113° |
| 近地点: | 755.462km |
| 远地点: | 760.696km |
| 周期: | 99.991分钟 |
| 每日圈数: | 14.40127 |